Location: Alphen
(52.1351°N, 4.6549°E)
Time: 01:38:25
(UTC+00:00)

Cosmos 2098 Rocket - Pass Details

Date: 27 January 2021
Orbit: 366 x 1182 km, 82.9° (Epoch: 27 February)

Event Time Altitude Azimuth Distance (km) Brightness Sun altitude
Rises 04:43:40 0° 351° (N) 3,724 7.0 -25.2°
Reaches altitude 10° 04:46:33 10° 356° (N) 2,648 6.2 -24.7°
Maximum altitude 04:52:23 51° 72° (ENE) 990 4.4 -23.8°
Drops below altitude 10° 04:56:58 10° 148° (SSE) 2,095 6.1 -23.1°
Sets 04:59:02 0° 154° (SSE) 2,883 6.8 -22.8°
